Location: 81360 Arifat, France
(43.7204°N, 2.3408°E)
Time: 21:53:02
(UTC+01:00)

BlueWalker 3 - Pass Details

Date: 02 December 2023
Orbit: 485 x 500 km, 53.2° (Epoch: 29 February)

Event Time Altitude Azimuth Distance (km) Brightness Sun altitude
Exits shadow 05:13:11 19° 62° (ENE) 1,242 4.5 -30.4°
Drops below altitude 10° 05:14:39 10° 79° (ENE) 1,694 5.5 -30.1°
Enters shadow 06:12:30 -68° 297° (WNW) 12,329 8.9 -19.7°
Maximum altitude 06:50:01 77° 218° (SW) 511 1.9 -13.2°
